• In Sweden
  • List of Countries
  • For 7 days
  • Water Temperature
  • Satellite Maps
  • Weather Map
  • Weather Widgets
  • user-avatar
    Login

    Hourly Weather Akyazı

    Today, 17 October, Wednesday

    Time Temperature Precipitation Wind Pressure Humidity
    00:00 +19°C° 0.1 mm 1 mps 758 mmHg 94%
    01:00 +19°C° 0.1 mm 1 mps 758 mmHg 95%
    02:00 +17°C° 0 mm 0 mps 758 mmHg 94%
    03:00 +17°C° 0 mm 0 mps 758 mmHg 94%
    04:00 +17°C° 0 mm 0 mps 758 mmHg 93%
    05:00 +19°C° 0 mm 1 mps 757 mmHg 93%
    06:00 +19°C° 0 mm 1 mps 757 mmHg 90%
    07:00 +20°C° 0 mm 1 mps 757 mmHg 87%
    08:00 +21°C° 0 mm 1 mps 757 mmHg 82%
    09:00 +22°C° 0 mm 1 mps 757 mmHg 77%
    10:00 +24°C° 0 mm 1 mps 757 mmHg 71%
    11:00 +25°C° 0 mm 2 mps 757 mmHg 66%
    12:00 +25°C° 0 mm 2 mps 756 mmHg 64%
    13:00 +26°C° 0 mm 2 mps 756 mmHg 63%
    14:00 +26°C° 0 mm 2 mps 756 mmHg 62%
    15:00 +25°C° 0.1 mm 2 mps 756 mmHg 69%
    16:00 +24°C° 0.1 mm 2 mps 756 mmHg 75%
    17:00 +23°C° 0.1 mm 2 mps 756 mmHg 82%
    18:00 +21°C° 0.2 mm 2 mps 756 mmHg 85%
    19:00 +21°C° 0.2 mm 2 mps 756 mmHg 89%
    20:00 +21°C° 0.2 mm 1 mps 756 mmHg 92%
    21:00 +21°C° 0.1 mm 1 mps 756 mmHg 93%
    22:00 +21°C° 0.1 mm 1 mps 756 mmHg 93%
    23:00 +20°C° 0.1 mm 1 mps 756 mmHg 93%

    Tomorrow, 18 October, Thursday

    Time Temperature Precipitation Wind Pressure Humidity
    00:00 +20°C° 0.1 mm 1 mps 756 mmHg 93%
    01:00 +20°C° 0.1 mm 1 mps 756 mmHg 92%
    02:00 +18°C° 0.1 mm 0 mps 756 mmHg 91%
    03:00 +18°C° 0.2 mm 0 mps 755 mmHg 90%
    04:00 +18°C° 0.2 mm 0 mps 755 mmHg 90%
    05:00 +17°C° 0.2 mm 0 mps 755 mmHg 90%
    06:00 +18°C° 0.1 mm 0 mps 755 mmHg 87%
    07:00 +19°C° 0.1 mm 0 mps 755 mmHg 84%
    08:00 +20°C° 0.1 mm 0 mps 756 mmHg 80%
    09:00 +23°C° 0 mm 1 mps 755 mmHg 75%
    10:00 +24°C° 0 mm 1 mps 755 mmHg 69%
    11:00 +26°C° 0 mm 1 mps 755 mmHg 63%
    12:00 +26°C° 0 mm 1 mps 755 mmHg 62%
    13:00 +26°C° 0 mm 2 mps 755 mmHg 61%
    14:00 +27°C° 0 mm 2 mps 754 mmHg 59%
    15:00 +26°C° 0.3 mm 2 mps 754 mmHg 66%
    16:00 +24°C° 0.3 mm 2 mps 754 mmHg 73%
    17:00 +23°C° 0.3 mm 1 mps 754 mmHg 80%
    18:00 +22°C° 0.6 mm 1 mps 754 mmHg 84%
    19:00 +22°C° 0.6 mm 1 mps 755 mmHg 87%
    20:00 +21°C° 0.6 mm 1 mps 755 mmHg 91%
    21:00 +21°C° 0.1 mm 1 mps 755 mmHg 92%
    22:00 +20°C° 0.1 mm 1 mps 755 mmHg 92%
    23:00 +20°C° 0.1 mm 1 mps 755 mmHg 93%

    Day after tomorrow, 19 October, Friday

    Time Temperature Precipitation Wind Pressure Humidity
    00:00 +18°C° 0.1 mm 0 mps 755 mmHg 93%
    01:00 +18°C° 0.1 mm 0 mps 755 mmHg 93%
    02:00 +18°C° 0.1 mm 0 mps 756 mmHg 93%
    03:00 +17°C° 0 mm 0 mps 755 mmHg 93%
    04:00 +17°C° 0 mm 0 mps 755 mmHg 93%
    05:00 +17°C° 0 mm 0 mps 755 mmHg 92%
    06:00 +18°C° 0 mm 0 mps 756 mmHg 90%
    07:00 +18°C° 0 mm 0 mps 756 mmHg 87%
    08:00 +21°C° 0 mm 1 mps 756 mmHg 84%
    09:00 +23°C° 0.1 mm 1 mps 756 mmHg 77%
    10:00 +24°C° 0.1 mm 1 mps 756 mmHg 71%
    11:00 +25°C° 0.1 mm 2 mps 756 mmHg 64%
    12:00 +26°C° 0.5 mm 2 mps 755 mmHg 63%
    13:00 +26°C° 0.5 mm 2 mps 755 mmHg 62%
    14:00 +26°C° 0.5 mm 2 mps 755 mmHg 61%
    15:00 +25°C° 0.5 mm 2 mps 755 mmHg 68%
    16:00 +24°C° 0.5 mm 2 mps 755 mmHg 75%
    17:00 +21°C° 0.5 mm 2 mps 755 mmHg 81%
    18:00 +22°C° 0.3 mm 1 mps 755 mmHg 85%
    19:00 +21°C° 0.3 mm 1 mps 756 mmHg 89%
    20:00 +20°C° 0.3 mm 1 mps 756 mmHg 93%
    21:00 +20°C° 0 mm 1 mps 756 mmHg 93%
    22:00 +20°C° 0 mm 1 mps 756 mmHg 94%
    23:00 +19°C° 0 mm 1 mps 756 mmHg 94%

    20 October, Saturday

    Time Temperature Precipitation Wind Pressure Humidity
    00:00 +19°C° 0 mm 1 mps 756 mmHg 94%
    01:00 +19°C° 0 mm 1 mps 756 mmHg 94%
    02:00 +19°C° 0 mm 1 mps 756 mmHg 95%
    03:00 +18°C° 0 mm 1 mps 756 mmHg 95%
    04:00 +18°C° 0 mm 1 mps 756 mmHg 95%
    05:00 +18°C° 0 mm 1 mps 756 mmHg 95%
    06:00 +18°C° 0 mm 1 mps 756 mmHg 92%
    07:00 +19°C° 0 mm 1 mps 757 mmHg 90%
    08:00 +20°C° 0 mm 1 mps 757 mmHg 87%
    09:00 +21°C° 0 mm 1 mps 757 mmHg 81%
    10:00 +22°C° 0 mm 1 mps 756 mmHg 74%
    11:00 +23°C° 0 mm 2 mps 756 mmHg 68%
    12:00 +23°C° 0.2 mm 2 mps 756 mmHg 66%
    13:00 +24°C° 0.2 mm 2 mps 756 mmHg 64%
    14:00 +24°C° 0.2 mm 3 mps 755 mmHg 63%
    15:00 +23°C° 0.2 mm 2 mps 755 mmHg 69%
    16:00 +21°C° 0.2 mm 2 mps 755 mmHg 75%
    17:00 +19°C° 0.2 mm 2 mps 755 mmHg 81%
    18:00 +19°C° 0 mm 2 mps 756 mmHg 84%
    19:00 +18°C° 0 mm 2 mps 756 mmHg 87%
    20:00 +18°C° 0 mm 1 mps 756 mmHg 90%
    21:00 +18°C° 0 mm 1 mps 756 mmHg 91%
    22:00 +18°C° 0 mm 1 mps 756 mmHg 91%
    23:00 +18°C° 0 mm 1 mps 756 mmHg 91%

    21 October, Sunday

    Time Temperature Precipitation Wind Pressure Humidity
    00:00 +18°C° 0 mm 1 mps 756 mmHg 91%
    01:00 +16°C° 0 mm 1 mps 755 mmHg 92%
    02:00 +16°C° 0 mm 1 mps 755 mmHg 93%
    03:00 +16°C° 0 mm 1 mps 755 mmHg 92%
    04:00 +16°C° 0 mm 1 mps 755 mmHg 92%
    05:00 +16°C° 0 mm 1 mps 755 mmHg 92%
    06:00 +16°C° 0.1 mm 1 mps 755 mmHg 90%
    07:00 +17°C° 0.1 mm 2 mps 756 mmHg 89%
    08:00 +17°C° 0.1 mm 2 mps 756 mmHg 88%
    09:00 +17°C° 0.2 mm 2 mps 756 mmHg 84%
    10:00 +18°C° 0.2 mm 2 mps 756 mmHg 81%
    11:00 +18°C° 0.2 mm 2 mps 756 mmHg 78%
    12:00 +19°C° 0.2 mm 2 mps 755 mmHg 76%
    13:00 +19°C° 0.2 mm 2 mps 755 mmHg 74%
    14:00 +19°C° 0.2 mm 2 mps 755 mmHg 73%
    15:00 +18°C° 0.1 mm 2 mps 755 mmHg 76%
    16:00 +18°C° 0.1 mm 2 mps 755 mmHg 79%
    17:00 +17°C° 0.1 mm 2 mps 754 mmHg 82%
    18:00 +17°C° 0.2 mm 2 mps 754 mmHg 86%
    19:00 +16°C° 0.2 mm 1 mps 755 mmHg 89%
    20:00 +15°C° 0.2 mm 1 mps 755 mmHg 93%
    21:00 +15°C° 0.1 mm 1 mps 755 mmHg 93%
    22:00 +15°C° 0.1 mm 1 mps 754 mmHg 94%
    23:00 +15°C° 0.1 mm 1 mps 754 mmHg 94%

    22 October, Monday

    Time Temperature Precipitation Wind Pressure Humidity
    00:00 +15°C° 0.1 mm 1 mps 754 mmHg 94%
    01:00 +15°C° 0.1 mm 1 mps 754 mmHg 94%
    02:00 +15°C° 0.1 mm 1 mps 754 mmHg 94%
    03:00 +15°C° 0 mm 1 mps 754 mmHg 94%
    04:00 +14°C° 0 mm 1 mps 754 mmHg 94%
    05:00 +14°C° 0 mm 1 mps 754 mmHg 95%
    06:00 +15°C° 0 mm 1 mps 755 mmHg 92%
    07:00 +15°C° 0 mm 1 mps 755 mmHg 88%
    08:00 +16°C° 0 mm 1 mps 755 mmHg 85%
    09:00 +18°C° 0 mm 1 mps 755 mmHg 78%
    10:00 +20°C° 0 mm 1 mps 755 mmHg 71%
    11:00 +21°C° 0 mm 1 mps 755 mmHg 63%
    12:00 +21°C° 0 mm 1 mps 755 mmHg 62%
    13:00 +22°C° 0 mm 1 mps 754 mmHg 60%
    14:00 +21°C° 0 mm 2 mps 754 mmHg 59%
    15:00 +21°C° 0 mm 1 mps 754 mmHg 65%
    16:00 +20°C° 0 mm 1 mps 754 mmHg 70%
    17:00 +19°C° 0 mm 1 mps 754 mmHg 76%
    18:00 +18°C° 0 mm 1 mps 755 mmHg 81%
    19:00 +18°C° 0 mm 1 mps 755 mmHg 86%
    20:00 +16°C° 0 mm 1 mps 755 mmHg 90%
    21:00 +16°C° 0 mm 1 mps 755 mmHg 90%
    22:00 +15°C° 0 mm 1 mps 755 mmHg 91%
    23:00 +15°C° 0 mm 1 mps 755 mmHg 91%
    Show more